| time (UTC) | temp C | wind direction | speed KPH | gust KPH | rain 1hr cm | rain 24hr cm | rain mn cm | humidity % | barometer mb |
| 20260506153516 | 30 | 142 | 1.6 | 14.5 | 0.00 | 0.00 | 0.00 | 54 | 1016.5 |
| 20260506153039 | 30 | 166 | 3.2 | 14.5 | 0.00 | 0.00 | 0.00 | 52 | 1016.6 |
| 20260506152521 | 30 | 163 | 3.2 | 12.9 | 0.00 | 0.00 | 0.00 | 53 | 1016.6 |
| 20260506152017 | 30 | 111 | 3.2 | 11.3 | 0.00 | 0.00 | 0.00 | 54 | 1016.6 |
| 20260506151535 | 30 | 206 | 3.2 | 12.9 | 0.00 | 0.00 | 0.00 | 55 | 1016.6 |
| 20260506151019 | 29 | 113 | 6.4 | 12.9 | 0.00 | 0.00 | 0.00 | 56 | 1016.5 |
| 20260506150520 | 30 | 149 | 4.8 | 17.7 | 0.00 | 0.00 | 0.00 | 55 | 1016.4 |
| 20260506150040 | 29 | 163 | 6.4 | 17.7 | 0.00 | 0.00 | 0.00 | 57 | 1016.5 |
| 20260506145521 | 29 | 153 | 3.2 | 14.5 | 0.00 | 0.00 | 0.00 | 58 | 1016.5 |
| 20260506145021 | 28 | 219 | 6.4 | 16.1 | 0.00 | 0.00 | 0.00 | 58 | 1016.3 |
| 20260506144538 | 28 | 235 | 3.2 | 16.1 | 0.00 | 0.00 | 0.00 | 61 | 1016.5 |
| 20260506144017 | 28 | 91 | 4.8 | 16.1 | 0.00 | 0.00 | 0.00 | 61 | 1016.4 |
| 20260506143516 | 28 | 182 | 8.0 | 16.1 | 0.00 | 0.00 | 0.00 | 60 | 1016.3 |
| 20260506143037 | 28 | 169 | 4.8 | 16.1 | 0.00 | 0.00 | 0.00 | 63 | 1016.3 |
| 20260506142516 | 28 | 129 | 4.8 | 12.9 | 0.00 | 0.00 | 0.00 | 63 | 1016.3 |
| 20260506142017 | 27 | 162 | 3.2 | 12.9 | 0.00 | 0.00 | 0.00 | 64 | 1016.3 |
| 20260506141534 | 27 | 180 | 6.4 | 12.9 | 0.00 | 0.00 | 0.00 | 65 | 1016.3 |
| 20260506141017 | 27 | 133 | 3.2 | 16.1 | 0.00 | 0.00 | 0.00 | 70 | 1016.4 |
| 20260506140522 | 26 | 170 | 6.4 | 16.1 | 0.00 | 0.00 | 0.00 | 68 | 1016.4 |
| 20260506140042 | 26 | 168 | 6.4 | 14.5 | 0.00 | 0.00 | 0.00 | 69 | 1016.4 |
| 20260506135517 | 26 | 117 | 8.0 | 14.5 | 0.00 | 0.00 | 0.00 | 71 | 1016.3 |
| 20260506135016 | 26 | 117 | 6.4 | 14.5 | 0.00 | 0.00 | 0.00 | 72 | 1016.3 |
| 20260506134532 | 26 | 173 | 4.8 | 17.7 | 0.00 | 0.00 | 0.00 | 74 | 1016.3 |
| 20260506134018 | 25 | 167 | 8.0 | 17.7 | 0.00 | 0.00 | 0.00 | 74 | 1016.4 |
| 20260506133519 | 25 | 184 | 8.0 | 16.1 | 0.00 | 0.00 | 0.00 | 76 | 1016.4 |
| 20260506133037 | 25 | 118 | 8.0 | 14.5 | 0.00 | 0.00 | 0.00 | 77 | 1016.3 |
| 20260506132516 | 25 | 145 | 6.4 | 16.1 | 0.00 | 0.00 | 0.00 | 79 | 1016.4 |
| 20260506132020 | 24 | 173 | 8.0 | 16.1 | 0.00 | 0.00 | 0.00 | 81 | 1016.3 |
| 20260506131533 | 23 | 171 | 8.0 | 14.5 | 0.00 | 0.00 | 0.00 | 80 | 1016.1 |
| 20260506131019 | 23 | 112 | 4.8 | 12.9 | 0.00 | 0.00 | 0.00 | 81 | 1016.2 |
| 20260506130520 | 23 | 123 | 3.2 | 12.9 | 0.00 | 0.00 | 0.00 | 81 | 1016.1 |
| 20260506130036 | 23 | 128 | 4.8 | 12.9 | 0.00 | 0.00 | 0.00 | 82 | 1016.2 |
| 20260506125517 | 23 | 118 | 6.4 | 11.3 | 0.00 | 0.00 | 0.00 | 82 | 1016.1 |
| 20260506125017 | 22 | 173 | 4.8 | 12.9 | 0.00 | 0.00 | 0.00 | 83 | 1016.1 |
| 20260506124538 | 22 | 126 | 4.8 | 12.9 | 0.00 | 0.00 | 0.00 | 83 | 1016.0 |
| 20260506124016 | 22 | 134 | 4.8 | 14.5 | 0.00 | 0.00 | 0.00 | 84 | 1015.9 |
| 20260506123516 | 21 | 136 | 6.4 | 14.5 | 0.00 | 0.00 | 0.00 | 85 | 1015.9 |
| 20260506123036 | 21 | 98 | 3.2 | 11.3 | 0.00 | 0.00 | 0.00 | 86 | 1015.9 |
| 20260506122516 | 21 | 115 | 3.2 | 9.7 | 0.00 | 0.00 | 0.00 | 86 | 1015.8 |
| 20260506122016 | 20 | 138 | 1.6 | 8.0 | 0.00 | 0.00 | 0.00 | 88 | 1015.7 |
| 20260506121534 | 20 | 156 | 1.6 | 6.4 | 0.00 | 0.00 | 0.00 | 88 | 1015.8 |
| 20260506121017 | 19 | 0 | 1.6 | 6.4 | 0.00 | 0.00 | 0.00 | 89 | 1015.6 |
| 20260506120517 | 18 | 144 | 3.2 | 6.4 | 0.00 | 0.00 | 0.00 | 90 | 1015.5 |
| 20260506120045 | 18 | 125 | 3.2 | 6.4 | 0.00 | 0.00 | 0.00 | 90 | 1015.5 |
| 20260506115517 | 18 | 117 | 1.6 | 4.8 | 0.00 | 0.00 | 0.00 | 91 | 1015.5 |
| 20260506115016 | 17 | 0 | 0.0 | 0.0 | 0.00 | 0.00 | 0.00 | 91 | 1015.5 |
| 20260506114537 | 17 | 0 | 0.0 | 0.0 | 0.00 | 0.00 | 0.00 | 91 | 1015.4 |
| 20260506114017 | 17 | 0 | 0.0 | 0.0 | 0.00 | 0.00 | 0.00 | 91 | 1015.4 |
| 20260506113518 | 16 | 0 | 0.0 | 0.0 | 0.00 | 0.00 | 0.00 | 92 | 1015.5 |
| 20260506113035 | 16 | 0 | 0.0 | 0.0 | 0.00 | 0.00 | 0.00 | 92 | 1015.4 |
| 20260506112519 | 16 | 0 | 0.0 | 0.0 | 0.00 | 0.00 | 0.00 | 93 | 1015.5 |
| 20260506112019 | 15 | 0 | 0.0 | 0.0 | 0.00 | 0.00 | 0.00 | 93 | 1015.5 |
| 20260506111543 | 15 | 0 | 0.0 | 0.0 | 0.00 | 0.00 | 0.00 | 92 | 1015.4 |
| 20260506111017 | 15 | 0 | 0.0 | 0.0 | 0.00 | 0.00 | 0.00 | 93 | 1015.4 |
| 20260506110517 | 15 | 0 | 0.0 | 0.0 | 0.00 | 0.00 | 0.00 | 93 | 1015.4 |
| 20260506110041 | 15 | 0 | 0.0 | 0.0 | 0.00 | 0.00 | 0.00 | 93 | 1015.4 |
| 20260506105520 | 15 | 0 | 0.0 | 0.0 | 0.00 | 0.00 | 0.00 | 92 | 1015.3 |
| 20260506105021 | 15 | 0 | 0.0 | 0.0 | 0.00 | 0.00 | 0.00 | 93 | 1015.2 |
| 20260506104544 | 15 | 0 | 0.0 | 0.0 | 0.00 | 0.00 | 0.00 | 92 | 1015.2 |
| 20260506104020 | 15 | 0 | 0.0 | 0.0 | 0.00 | 0.00 | 0.00 | 92 | 1015.1 |
| 20260506103520 | 15 | 0 | 0.0 | 0.0 | 0.00 | 0.00 | 0.00 | 91 | 1015.0 |
| 20260506103037 | 15 | 0 | 0.0 | 0.0 | 0.00 | 0.00 | 0.00 | 91 | 1015.0 |
| 20260506102523 | 15 | 0 | 0.0 | 0.0 | 0.00 | 0.00 | 0.00 | 91 | 1014.9 |
| 20260506102020 | 15 | 0 | 0.0 | 0.0 | 0.00 | 0.00 | 0.00 | 90 | 1014.8 |
| 20260506101537 | 16 | 0 | 0.0 | 0.0 | 0.00 | 0.00 | 0.00 | 91 | 1014.8 |
| 20260506101020 | 16 | 0 | 0.0 | 0.0 | 0.00 | 0.00 | 0.00 | 91 | 1014.9 |
| 20260506100520 | 16 | 0 | 0.0 | 0.0 | 0.00 | 0.00 | 0.00 | 91 | 1014.9 |
| 20260506100039 | 16 | 0 | 0.0 | 0.0 | 0.00 | 0.00 | 0.00 | 91 | 1014.7 |
| 20260506095524 | 16 | 0 | 0.0 | 0.0 | 0.00 | 0.00 | 0.00 | 92 | 1014.8 |
| 20260506095021 | 15 | 0 | 0.0 | 0.0 | 0.00 | 0.00 | 0.00 | 92 | 1014.9 |
| 20260506094546 | 15 | 0 | 0.0 | 0.0 | 0.00 | 0.00 | 0.00 | 91 | 1015.0 |
| 20260506094017 | 15 | 0 | 0.0 | 0.0 | 0.00 | 0.00 | 0.00 | 90 | 1015.0 |
| 20260506093523 | 16 | 0 | 0.0 | 0.0 | 0.00 | 0.00 | 0.00 | 90 | 1014.9 |
| 20260506093102 | 16 | 0 | 0.0 | 0.0 | 0.00 | 0.00 | 0.00 | 91 | 1014.7 |
| 20260506092520 | 16 | 0 | 0.0 | 0.0 | 0.00 | 0.00 | 0.00 | 91 | 1014.8 |
| 20260506092020 | 16 | 0 | 0.0 | 0.0 | 0.00 | 0.00 | 0.00 | 91 | 1014.6 |
| 20260506091545 | 15 | 0 | 0.0 | 0.0 | 0.00 | 0.00 | 0.00 | 92 | 1014.8 |
| 20260506091021 | 15 | 0 | 0.0 | 0.0 | 0.00 | 0.00 | 0.00 | 91 | 1014.9 |
| 20260506090520 | 15 | 0 | 0.0 | 0.0 | 0.00 | 0.00 | 0.00 | 91 | 1014.8 |
| 20260506090040 | 15 | 0 | 0.0 | 0.0 | 0.00 | 0.00 | 0.00 | 91 | 1014.7 |
| 20260506085523 | 15 | 0 | 0.0 | 0.0 | 0.00 | 0.00 | 0.00 | 91 | 1014.7 |
| 20260506085021 | 15 | 0 | 0.0 | 0.0 | 0.00 | 0.00 | 0.00 | 90 | 1014.7 |
| 20260506084536 | 15 | 0 | 0.0 | 0.0 | 0.00 | 0.00 | 0.00 | 90 | 1014.8 |
| 20260506084022 | 15 | 0 | 0.0 | 0.0 | 0.00 | 0.00 | 0.00 | 90 | 1014.7 |
| 20260506083520 | 16 | 0 | 0.0 | 0.0 | 0.00 | 0.00 | 0.00 | 90 | 1014.7 |
| 20260506083040 | 16 | 0 | 0.0 | 0.0 | 0.00 | 0.00 | 0.00 | 90 | 1014.6 |
| 20260506082520 | 15 | 0 | 0.0 | 0.0 | 0.00 | 0.00 | 0.00 | 90 | 1014.6 |
| 20260506082018 | 15 | 0 | 0.0 | 0.0 | 0.00 | 0.00 | 0.00 | 90 | 1014.7 |
| 20260506081541 | 16 | 0 | 0.0 | 0.0 | 0.00 | 0.00 | 0.00 | 89 | 1014.6 |
| 20260506081022 | 16 | 0 | 0.0 | 0.0 | 0.00 | 0.00 | 0.00 | 90 | 1014.6 |
| 20260506080521 | 16 | 0 | 0.0 | 0.0 | 0.00 | 0.00 | 0.00 | 89 | 1014.6 |
| 20260506073521 | 16 | 0 | 0.0 | 0.0 | 0.00 | 0.00 | 0.00 | 90 | 1014.9 |
| 20260506073039 | 16 | 0 | 0.0 | 0.0 | 0.00 | 0.00 | 0.00 | 90 | 1014.9 |
| 20260506072519 | 16 | 0 | 0.0 | 0.0 | 0.00 | 0.00 | 0.00 | 90 | 1015.0 |
| 20260506072020 | 15 | 0 | 0.0 | 0.0 | 0.00 | 0.00 | 0.00 | 90 | 1015.0 |
| 20260506071536 | 15 | 0 | 0.0 | 0.0 | 0.00 | 0.00 | 0.00 | 90 | 1015.1 |
| 20260506071021 | 15 | 0 | 0.0 | 0.0 | 0.00 | 0.00 | 0.00 | 89 | 1015.1 |
| 20260506070523 | 16 | 0 | 0.0 | 0.0 | 0.00 | 0.00 | 0.00 | 89 | 1015.0 |
| 20260506062021 | 17 | 0 | 0.0 | 0.0 | 0.00 | 0.00 | 0.00 | 86 | 1015.3 |
| 20260506061555 | 17 | 0 | 0.0 | 0.0 | 0.00 | 0.00 | 0.00 | 86 | 1015.3 |
| 20260506061019 | 17 | 0 | 0.0 | 0.0 | 0.00 | 0.00 | 0.00 | 86 | 1015.3 |
| 20260506060518 | 17 | 0 | 0.0 | 0.0 | 0.00 | 0.00 | 0.00 | 86 | 1015.5 |
| 20260506051015 | 18 | 0 | 0.0 | 0.0 | 0.00 | 0.00 | 0.00 | 80 | 1015.7 |
| 20260506050516 | 18 | 0 | 0.0 | 0.0 | 0.00 | 0.00 | 0.00 | 79 | 1015.8 |
| 20260506045018 | 18 | 0 | 0.0 | 0.0 | 0.00 | 0.00 | 0.00 | 80 | 1016.0 |
| 20260506044534 | 18 | 0 | 0.0 | 0.0 | 0.00 | 0.00 | 0.00 | 81 | 1016.0 |
| 20260506044015 | 18 | 0 | 0.0 | 0.0 | 0.00 | 0.00 | 0.00 | 82 | 1016.1 |
| 20260506043516 | 17 | 0 | 0.0 | 0.0 | 0.00 | 0.00 | 0.00 | 81 | 1016.2 |
| 20260506043033 | 18 | 0 | 0.0 | 0.0 | 0.00 | 0.00 | 0.00 | 78 | 1016.1 |
| 20260506042515 | 19 | 0 | 0.0 | 0.0 | 0.00 | 0.00 | 0.00 | 78 | 1016.2 |
| 20260506042016 | 19 | 0 | 0.0 | 0.0 | 0.00 | 0.00 | 0.00 | 78 | 1016.2 |
| 20260506041536 | 19 | 0 | 0.0 | 0.0 | 0.00 | 0.00 | 0.00 | 77 | 1016.1 |
| 20260506041016 | 19 | 0 | 0.0 | 0.0 | 0.00 | 0.00 | 0.00 | 76 | 1016.1 |
| 20260506040516 | 20 | 0 | 0.0 | 0.0 | 0.00 | 0.00 | 0.00 | 75 | 1016.1 |
| 20260506040035 | 20 | 0 | 0.0 | 1.6 | 0.00 | 0.00 | 0.00 | 74 | 1016.2 |
| 20260506035516 | 20 | 0 | 0.0 | 1.6 | 0.00 | 0.00 | 0.00 | 72 | 1016.0 |
| 20260506035018 | 21 | 0 | 0.0 | 3.2 | 0.00 | 0.00 | 0.00 | 71 | 1015.9 |
| 20260506034534 | 21 | 105 | 0.0 | 3.2 | 0.00 | 0.00 | 0.00 | 71 | 1015.8 |
| 20260506034016 | 21 | 115 | 1.6 | 3.2 | 0.00 | 0.00 | 0.00 | 70 | 1015.8 |
| 20260506033515 | 21 | 0 | 0.0 | 6.4 | 0.00 | 0.00 | 0.00 | 70 | 1015.8 |
| 20260506033043 | 21 | 0 | 1.6 | 6.4 | 0.00 | 0.00 | 0.00 | 70 | 1015.8 |
| 20260506032515 | 21 | 145 | 1.6 | 6.4 | 0.00 | 0.00 | 0.00 | 70 | 1015.7 |
| 20260506032015 | 21 | 116 | 1.6 | 9.7 | 0.00 | 0.00 | 0.00 | 69 | 1015.6 |
| 20260506031533 | 21 | 110 | 1.6 | 11.3 | 0.00 | 0.00 | 0.00 | 69 | 1015.7 |
| 20260506031016 | 21 | 118 | 4.8 | 11.3 | 0.00 | 0.00 | 0.00 | 69 | 1015.6 |
| 20260506030515 | 21 | 125 | 3.2 | 11.3 | 0.00 | 0.00 | 0.00 | 68 | 1015.6 |
| 20260506030037 | 21 | 101 | 3.2 | 11.3 | 0.00 | 0.00 | 0.00 | 68 | 1015.6 |
| 20260506025516 | 21 | 113 | 4.8 | 11.3 | 0.00 | 0.00 | 0.00 | 68 | 1015.7 |
| 20260506025015 | 21 | 105 | 4.8 | 11.3 | 0.00 | 0.00 | 0.00 | 68 | 1015.6 |
| 20260506024535 | 22 | 122 | 3.2 | 6.4 | 0.00 | 0.00 | 0.00 | 67 | 1015.7 |
| 20260506024016 | 22 | 111 | 0.0 | 8.0 | 0.00 | 0.00 | 0.00 | 67 | 1015.6 |
| 20260506023516 | 21 | 113 | 1.6 | 8.0 | 0.00 | 0.00 | 0.00 | 68 | 1015.6 |
| 20260506023047 | 21 | 101 | 1.6 | 6.4 | 0.00 | 0.00 | 0.00 | 67 | 1015.6 |
| 20260506022515 | 21 | 113 | 0.0 | 1.6 | 0.00 | 0.00 | 0.00 | 67 | 1015.5 |
| 20260506022015 | 22 | 0 | 0.0 | 0.0 | 0.00 | 0.00 | 0.00 | 66 | 1015.5 |
| 20260506021532 | 21 | 0 | 0.0 | 0.0 | 0.00 | 0.00 | 0.00 | 67 | 1015.5 |
| 20260506021016 | 21 | 0 | 0.0 | 0.0 | 0.00 | 0.00 | 0.00 | 67 | 1015.5 |
| 20260506020515 | 22 | 0 | 0.0 | 0.0 | 0.00 | 0.00 | 0.00 | 66 | 1015.4 |
| 20260506020105 | 22 | 0 | 0.0 | 0.0 | 0.00 | 0.00 | 0.00 | 65 | 1015.3 |
| 20260506015517 | 22 | 0 | 0.0 | 0.0 | 0.00 | 0.00 | 0.00 | 65 | 1015.4 |
| 20260506015021 | 22 | 0 | 0.0 | 0.0 | 0.00 | 0.00 | 0.00 | 66 | 1015.5 |
| 20260506014538 | 22 | 0 | 0.0 | 1.6 | 0.00 | 0.00 | 0.00 | 64 | 1015.4 |
| 20260506014016 | 22 | 0 | 0.0 | 4.8 | 0.00 | 0.00 | 0.00 | 63 | 1015.3 |
| 20260506013520 | 23 | 0 | 0.0 | 6.4 | 0.00 | 0.00 | 0.00 | 62 | 1015.3 |
| 20260506013037 | 23 | 136 | 0.0 | 6.4 | 0.00 | 0.00 | 0.00 | 61 | 1015.1 |
| 20260506012517 | 23 | 153 | 0.0 | 3.2 | 0.00 | 0.00 | 0.00 | 61 | 1015.0 |
| 20260506012017 | 23 | 0 | 0.0 | 3.2 | 0.00 | 0.00 | 0.00 | 61 | 1014.9 |
| 20260506011539 | 23 | 0 | 0.0 | 6.4 | 0.00 | 0.00 | 0.00 | 60 | 1014.9 |
| 20260506011017 | 23 | 0 | 1.6 | 9.7 | 0.00 | 0.00 | 0.00 | 59 | 1014.9 |
| 20260506010517 | 23 | 109 | 3.2 | 11.3 | 0.00 | 0.00 | 0.00 | 59 | 1014.7 |
| 20260506010035 | 23 | 98 | 4.8 | 12.9 | 0.00 | 0.00 | 0.00 | 59 | 1014.6 |
| 20260506005517 | 24 | 88 | 6.4 | 16.1 | 0.00 | 0.00 | 0.00 | 58 | 1014.6 |
| 20260506005016 | 24 | 86 | 6.4 | 16.1 | 0.00 | 0.00 | 0.00 | 58 | 1014.5 |
| 20260506004544 | 24 | 95 | 6.4 | 16.1 | 0.00 | 0.00 | 0.00 | 58 | 1014.4 |
| 20260506004018 | 24 | 59 | 8.0 | 16.1 | 0.00 | 0.00 | 0.00 | 57 | 1014.2 |
| 20260506003520 | 25 | 94 | 8.0 | 19.3 | 0.00 | 0.00 | 0.00 | 57 | 1014.1 |
| 20260506003034 | 25 | 77 | 9.7 | 19.3 | 0.00 | 0.00 | 0.00 | 57 | 1014.1 |
| 20260506002516 | 25 | 88 | 11.3 | 19.3 | 0.00 | 0.00 | 0.00 | 56 | 1014.0 |
| 20260506002016 | 25 | 88 | 8.0 | 17.7 | 0.00 | 0.00 | 0.00 | 56 | 1013.8 |
| 20260506001533 | 25 | 126 | 9.7 | 17.7 | 0.00 | 0.00 | 0.00 | 56 | 1013.9 |
| 20260506001018 | 25 | 77 | 11.3 | 17.7 | 0.00 | 0.00 | 0.00 | 56 | 1013.9 |
| 20260506000518 | 25 | 64 | 9.7 | 17.7 | 0.00 | 0.00 | 0.00 | 56 | 1013.8 |
| 20260506000053 | 25 | 73 | 9.7 | 16.1 | 0.00 | 0.00 | 0.00 | 56 | 1013.8 |
| 20260505235517 | 26 | 34 | 9.7 | 19.3 | 0.00 | 0.00 | 0.00 | 56 | 1013.8 |
| 20260505235017 | 26 | 77 | 12.9 | 19.3 | 0.00 | 0.00 | 0.00 | 55 | 1013.7 |
| 20260505234540 | 26 | 80 | 9.7 | 17.7 | 0.00 | 0.00 | 0.00 | 55 | 1013.6 |
| 20260505234018 | 26 | 78 | 11.3 | 20.9 | 0.00 | 0.00 | 0.00 | 55 | 1013.5 |
| 20260505233516 | 26 | 65 | 9.7 | 20.9 | 0.00 | 0.00 | 0.00 | 54 | 1013.4 |
| 20260505233034 | 27 | 47 | 11.3 | 19.3 | 0.00 | 0.00 | 0.00 | 52 | 1013.5 |
| 20260505232517 | 27 | 56 | 8.0 | 19.3 | 0.00 | 0.00 | 0.00 | 50 | 1013.4 |
| 20260505232017 | 28 | 104 | 4.8 | 9.7 | 0.00 | 0.00 | 0.00 | 49 | 1013.3 |
| 20260505231535 | 28 | 87 | 3.2 | 12.9 | 0.00 | 0.00 | 0.00 | 50 | 1013.3 |
| 20260505231016 | 28 | 96 | 4.8 | 12.9 | 0.00 | 0.00 | 0.00 | 48 | 1013.3 |
| 20260505230516 | 28 | 91 | 6.4 | 12.9 | 0.00 | 0.00 | 0.00 | 47 | 1013.3 |
| 20260505230042 | 28 | 72 | 4.8 | 11.3 | 0.00 | 0.00 | 0.00 | 46 | 1013.3 |
| 20260505225522 | 28 | 52 | 3.2 | 9.7 | 0.00 | 0.00 | 0.00 | 46 | 1013.4 |
| 20260505225025 | 28 | 78 | 4.8 | 9.7 | 0.00 | 0.00 | 0.00 | 46 | 1013.4 |
| 20260505224547 | 28 | 65 | 4.8 | 12.9 | 0.00 | 0.00 | 0.00 | 46 | 1013.5 |
| 20260505224020 | 28 | 98 | 4.8 | 12.9 | 0.00 | 0.00 | 0.00 | 46 | 1013.5 |
| 20260505223522 | 29 | 115 | 6.4 | 16.1 | 0.00 | 0.00 | 0.00 | 45 | 1013.5 |
| 20260505223039 | 29 | 67 | 6.4 | 16.1 | 0.00 | 0.00 | 0.00 | 45 | 1013.5 |
| 20260505222518 | 29 | 90 | 8.0 | 16.1 | 0.00 | 0.00 | 0.00 | 45 | 1013.5 |
| 20260505222017 | 30 | 57 | 3.2 | 9.7 | 0.00 | 0.00 | 0.00 | 44 | 1013.5 |
| 20260505221544 | 30 | 85 | 3.2 | 12.9 | 0.00 | 0.00 | 0.00 | 44 | 1013.6 |
| 20260505221020 | 29 | 107 | 6.4 | 12.9 | 0.00 | 0.00 | 0.00 | 45 | 1013.6 |
| 20260505220516 | 29 | 108 | 8.0 | 12.9 | 0.00 | 0.00 | 0.00 | 43 | 1013.6 |
| 20260505220035 | 29 | 85 | 4.8 | 11.3 | 0.00 | 0.00 | 0.00 | 46 | 1013.6 |
| 20260505215521 | 28 | 32 | 6.4 | 11.3 | 0.00 | 0.00 | 0.00 | 45 | 1013.6 |
| 20260505215017 | 28 | 38 | 4.8 | 11.3 | 0.00 | 0.00 | 0.00 | 45 | 1013.6 |
| 20260505214544 | 28 | 51 | 3.2 | 14.5 | 0.00 | 0.00 | 0.00 | 47 | 1013.6 |
| 20260505214022 | 28 | 81 | 4.8 | 14.5 | 0.00 | 0.00 | 0.00 | 46 | 1013.7 |
| 20260505213520 | 28 | 71 | 6.4 | 14.5 | 0.00 | 0.00 | 0.00 | 46 | 1013.6 |
| 20260505213037 | 28 | 35 | 8.0 | 14.5 | 0.00 | 0.00 | 0.00 | 45 | 1013.7 |
| 20260505212521 | 28 | 49 | 4.8 | 14.5 | 0.00 | 0.00 | 0.00 | 46 | 1013.6 |
| 20260505212020 | 28 | 69 | 6.4 | 16.1 | 0.00 | 0.00 | 0.00 | 45 | 1013.6 |
| 20260505211557 | 29 | 74 | 6.4 | 16.1 | 0.00 | 0.00 | 0.00 | 44 | 1013.6 |
| 20260505211016 | 29 | 46 | 4.8 | 16.1 | 0.00 | 0.00 | 0.00 | 44 | 1013.5 |
| 20260505210516 | 30 | 72 | 8.0 | 16.1 | 0.00 | 0.00 | 0.00 | 42 | 1013.4 |
| 20260505210041 | 31 | 84 | 4.8 | 11.3 | 0.00 | 0.00 | 0.00 | 38 | 1013.4 |
| 20260505205526 | 31 | 88 | 3.2 | 9.7 | 0.00 | 0.00 | 0.00 | 40 | 1013.4 |
| 20260505205024 | 30 | 250 | 1.6 | 8.0 | 0.00 | 0.00 | 0.00 | 43 | 1013.4 |
| 20260505204554 | 30 | 145 | 0.0 | 12.9 | 0.00 | 0.00 | 0.00 | 40 | 1013.5 |
| 20260505204024 | 30 | 108 | 3.2 | 16.1 | 0.00 | 0.00 | 0.00 | 41 | 1013.5 |
| 20260505203520 | 30 | 87 | 6.4 | 16.1 | 0.00 | 0.00 | 0.00 | 41 | 1013.6 |
| 20260505203041 | 31 | 128 | 1.6 | 12.9 | 0.00 | 0.00 | 0.00 | 41 | 1013.5 |
| 20260505202521 | 31 | 91 | 4.8 | 14.5 | 0.00 | 0.00 | 0.00 | 41 | 1013.5 |
| 20260505202024 | 30 | 144 | 6.4 | 17.7 | 0.00 | 0.00 | 0.00 | 42 | 1013.7 |
| 20260505201541 | 30 | 57 | 6.4 | 17.7 | 0.00 | 0.00 | 0.00 | 43 | 1013.7 |
| 20260505201020 | 30 | 89 | 4.8 | 17.7 | 0.00 | 0.00 | 0.00 | 44 | 1013.7 |
| 20260505200527 | 30 | 112 | 9.7 | 16.1 | 0.00 | 0.00 | 0.00 | 43 | 1013.8 |
| 20260505200038 | 30 | 0 | 3.2 | 14.5 | 0.00 | 0.00 | 0.00 | 42 | 1013.9 |
| 20260505195516 | 30 | 52 | 6.4 | 14.5 | 0.00 | 0.00 | 0.00 | 42 | 1013.9 |
| 20260505195017 | 29 | 149 | 4.8 | 14.5 | 0.00 | 0.00 | 0.00 | 44 | 1013.9 |
| 20260505194536 | 29 | 96 | 8.0 | 16.1 | 0.00 | 0.00 | 0.00 | 44 | 1014.0 |
| 20260505194021 | 29 | 82 | 6.4 | 16.1 | 0.00 | 0.00 | 0.00 | 45 | 1014.1 |
| 20260505193516 | 28 | 83 | 3.2 | 16.1 | 0.00 | 0.00 | 0.00 | 45 | 1014.2 |
| 20260505193036 | 29 | 263 | 0.0 | 16.1 | 0.00 | 0.00 | 0.00 | 43 | 1014.1 |
| 20260505192518 | 30 | 61 | 8.0 | 16.1 | 0.00 | 0.00 | 0.00 | 42 | 1014.3 |
| 20260505192017 | 30 | 49 | 4.8 | 17.7 | 0.00 | 0.00 | 0.00 | 40 | 1014.3 |
| 20260505191535 | 30 | 112 | 9.7 | 17.7 | 0.00 | 0.00 | 0.00 | 42 | 1014.4 |
| 20260505191016 | 30 | 107 | 1.6 | 14.5 | 0.00 | 0.00 | 0.00 | 42 | 1014.3 |
| 20260505190516 | 30 | 171 | 8.0 | 14.5 | 0.00 | 0.00 | 0.00 | 40 | 1014.4 |
| 20260505190033 | 30 | 84 | 0.0 | 14.5 | 0.00 | 0.00 | 0.00 | 45 | 1014.5 |
| 20260505185516 | 30 | 281 | 3.2 | 16.1 | 0.00 | 0.00 | 0.00 | 43 | 1014.6 |
| 20260505185016 | 30 | 64 | 6.4 | 16.1 | 0.00 | 0.00 | 0.00 | 44 | 1014.6 |
| 20260505184541 | 30 | 11 | 8.0 | 16.1 | 0.00 | 0.00 | 0.00 | 44 | 1014.6 |
| 20260505184016 | 30 | 104 | 6.4 | 14.5 | 0.00 | 0.00 | 0.00 | 43 | 1014.6 |
| 20260505183521 | 30 | 180 | 4.8 | 16.1 | 0.00 | 0.00 | 0.00 | 44 | 1014.7 |
| 20260505183036 | 30 | 115 | 3.2 | 16.1 | 0.00 | 0.00 | 0.00 | 46 | 1014.6 |
| 20260505182516 | 30 | 119 | 3.2 | 12.9 | 0.00 | 0.00 | 0.00 | 45 | 1014.7 |
| 20260505182022 | 30 | 153 | 3.2 | 12.9 | 0.00 | 0.00 | 0.00 | 43 | 1014.8 |
| 20260505181547 | 30 | 121 | 8.0 | 12.9 | 0.00 | 0.00 | 0.00 | 46 | 1015.0 |
| 20260505181016 | 29 | 85 | 3.2 | 12.9 | 0.00 | 0.00 | 0.00 | 46 | 1015.0 |
| 20260505180515 | 30 | 107 | 3.2 | 14.5 | 0.00 | 0.00 | 0.00 | 44 | 1014.9 |
| 20260505180036 | 29 | 109 | 4.8 | 14.5 | 0.00 | 0.00 | 0.00 | 49 | 1015.0 |
| 20260505175516 | 28 | 67 | 3.2 | 12.9 | 0.00 | 0.00 | 0.00 | 50 | 1015.2 |
| 20260505175017 | 27 | 120 | 6.4 | 12.9 | 0.00 | 0.00 | 0.00 | 51 | 1015.1 |
| 20260505174540 | 27 | 28 | 3.2 | 12.9 | 0.00 | 0.00 | 0.00 | 53 | 1015.3 |
| 20260505174016 | 27 | 24 | 3.2 | 16.1 | 0.00 | 0.00 | 0.00 | 51 | 1015.2 |
| 20260505173517 | 27 | 78 | 6.4 | 16.1 | 0.00 | 0.00 | 0.00 | 51 | 1015.4 |
| 20260505173031 | 27 | 25 | 6.4 | 14.5 | 0.00 | 0.00 | 0.00 | 52 | 1015.4 |
| 20260505172519 | 27 | 0 | 3.2 | 19.3 | 0.00 | 0.00 | 0.00 | 53 | 1015.3 |
| 20260505172019 | 27 | 57 | 8.0 | 19.3 | 0.00 | 0.00 | 0.00 | 53 | 1015.4 |
| 20260505171541 | 27 | 61 | 4.8 | 16.1 | 0.00 | 0.00 | 0.00 | 53 | 1015.4 |
| 20260505171017 | 27 | 65 | 4.8 | 17.7 | 0.00 | 0.00 | 0.00 | 53 | 1015.5 |
| 20260505170516 | 27 | 63 | 9.7 | 19.3 | 0.00 | 0.00 | 0.00 | 53 | 1015.6 |
| 20260505170036 | 27 | 55 | 9.7 | 19.3 | 0.00 | 0.00 | 0.00 | 52 | 1015.5 |
| 20260505165517 | 28 | 83 | 9.7 | 20.9 | 0.00 | 0.00 | 0.00 | 52 | 1015.4 |
| 20260505165023 | 28 | 42 | 11.3 | 20.9 | 0.00 | 0.00 | 0.00 | 51 | 1015.5 |
| 20260505164535 | 28 | 34 | 8.0 | 20.9 | 0.00 | 0.00 | 0.00 | 50 | 1015.6 |
| 20260505164021 | 28 | 50 | 11.3 | 19.3 | 0.00 | 0.00 | 0.00 | 50 | 1015.6 |
| 20260505163524 | 28 | 114 | 9.7 | 19.3 | 0.00 | 0.00 | 0.00 | 52 | 1015.7 |
| 20260505163046 | 28 | 85 | 8.0 | 19.3 | 0.00 | 0.00 | 0.00 | 51 | 1015.9 |
| 20260505162520 | 28 | 106 | 9.7 | 19.3 | 0.00 | 0.00 | 0.00 | 50 | 1015.7 |
| 20260505162020 | 28 | 60 | 6.4 | 19.3 | 0.00 | 0.00 | 0.00 | 52 | 1015.8 |
| 20260505161538 | 28 | 81 | 9.7 | 19.3 | 0.00 | 0.00 | 0.00 | 51 | 1015.9 |
| 20260505161021 | 27 | 60 | 4.8 | 17.7 | 0.00 | 0.00 | 0.00 | 54 | 1015.9 |
| 20260505160521 | 28 | 78 | 8.0 | 17.7 | 0.00 | 0.00 | 0.00 | 51 | 1015.9 |